[[{"header":{"parameterUnit":"m.s-1","parameterCategory":2,"la1":30.2991,"la2":30.254,"lo1":-89.0895,"lo2":-89.0444,"dy":0.0017,"dx":0.0017,"nx":28,"ny":28,"refTime":"2024-08-14T09:00:00:Z","depth":"0","parameterNumber":2,"parameterNumberName":"U-component_of_CURRENTS"},"data":[0,0,0,0,0,0,0,0,0,0,0,0,0,0,0,0,0,0,0,0,0,0,0,0,0,0,0,0,0,0,0,0,0,0,0,0,0,0,0,0,0,0,0,0,0,0,0,0,0,0,0,0,0,0,0,0,0,0,0.2951,0.2952,0,0.3013,0.3013,0.3014,0.2937,0.2935,0.2932,0.293,0.2911,0.2912,0.2914,0,0,0,0,0,0,0,0,0,0,0,0,0,0.29,0.29,0.2951,0.2952,0.2954,0.3013,0.3013,0.3014,0.2937,0.2935,0.2932,0.2929,0.291,0.2912,0.2914,0,0,0,0,0,0,0,0,0,0,0,0,0,0.2933,0.29,0.2951,0.2926,0.2925,0.3013,0.3013,0.3014,0.2938,0.2934,0.2931,0.2927,0.2909,0.2912,0.2914,0.3002,0,0,0.2922,0.2923,0,0,0,0,0,0,0,0,0.2931,0.2934,0.2929,0.2928,0.2927,0.2967,0.2988,0.3007,0.2939,0.2928,0.293,0.2926,0.2928,0.2929,0.2943,0.3002,0.3001,0.2923,0.2924,0.2925,0.2926,0,0,0,0,0,0,0,0.2929,0.2932,0.2971,0.293,0.2929,0.2957,0.2956,0.2992,0.2943,0.2929,0.2925,0.294,0.2925,0.2941,0.2942,0.3,0.2922,0.2925,0.2926,0.2927,0.3153,0.3158,0,0,0,0,0,0,0.2927,0.293,0.2969,0.2973,0.2925,0.2961,0.296,0.2954,0.2944,0.2941,0.2943,0.2936,0.2938,0.2939,0.2941,0.3105,0.2925,0.2928,0.2929,0.3149,0.3154,0.3159,0,0,0,0,0,0,0.2926,0.293,0.2967,0.2958,0.2965,0.2965,0.296,0.2958,0.2978,0.2956,0.2949,0.2966,0.2935,0.2937,0.3006,0.31,0.2929,0.2931,0.3144,0.3151,0.3157,0.3394,0,0,0,0,0,0,0.2924,0.2928,0.2936,0.2957,0.2965,0.3043,0.2964,0.2962,0.2994,0.2986,0.2975,0.2968,0.2933,0.3003,0.3009,0.3101,0.2933,0.3138,0.3147,0.3155,0.338,0.3408,0.3431,0,0,0,0,0,0.2921,0.2944,0.2936,0.2942,0.2971,0.3047,0.3056,0.304,0.2999,0.3038,0.3034,0.2969,0.3058,0.301,0.3015,0.311,0.3134,0.3144,0.3154,0.3369,0.3402,0.343,0,0,0,0,0,0,0.2929,0.294,0.293,0.2954,0.3011,0.3036,0.3071,0.3066,0.3095,0.3085,0.3038,0.3037,0.3135,0.3094,0.304,0.3198,0.3082,0.3094,0.3244,0.3275,0.33,0.3283,0.2935,0,0,0,0,0,0.2938,0.2947,0.2987,0.3012,0.3043,0.3065,0.3095,0.31,0.3126,0.3133,0.3137,0.3142,0.3187,0.3202,0.3232,0.3326,0.33,0.3385,0.3411,0.3432,0.3423,0.3507,0.3539,0.3192,0.3192,0.3192,0,0,0.2947,0.2957,0.2961,0.3015,0.3048,0.313,0.3073,0.3143,0.3212,0.3132,0.3229,0.3244,0.3234,0.3342,0.338,0.3314,0.3524,0.3445,0.3464,0.3442,0.3521,0.3555,0.3585,0.3199,0.3198,0.3196,0,0,0.299,0.2987,0.3023,0.3085,0.3159,0.319,0.3219,0.3283,0.331,0.3418,0.3384,0.346,0.3511,0.3542,0.3555,0.374,0.3666,0.3744,0.3854,0.3939,0.3968,0.3993,0.4029,0.4055,0.3746,0.3747,0.3747,0,0.301,0.3047,0.3057,0.3135,0.319,0.3224,0.331,0.3373,0.3456,0.3492,0.3471,0.3598,0.3611,0.3729,0.3799,0.3801,0.3807,0.3742,0.3973,0.3997,0.4019,0.4049,0.4074,0.3759,0.3758,0.3757,0.3755,0,0.3091,0.3141,0.3182,0.3273,0.3344,0.3431,0.3519,0.3598,0.3635,0.3683,0.3816,0.3862,0.3908,0.3963,0.3941,0.4108,0.4051,0.4008,0.3895,0.4068,0.4089,0.4111,0.3777,0.3773,0.3769,0.3766,0,0,0.3084,0.3209,0.3222,0.3285,0.3422,0.3486,0.3624,0.3743,0.3805,0.3925,0.4008,0.4156,0.4153,0.4168,0.4177,0.427,0.4464,0.4212,0.421,0.4245,0.4625,0.434,0.4336,0.4465,0.447,0.4474,0.4586,0,0.3149,0.3288,0.3334,0.3486,0.3577,0.3651,0.3761,0.3874,0.3955,0.4055,0.4141,0.4228,0.4238,0.4266,0.438,0.4417,0.453,0.4435,0.445,0.445,0.4175,0.4355,0.4042,0.4093,0.4607,0.4611,0.4614,0,0.3217,0.3299,0.3443,0.3577,0.3618,0.3706,0.3848,0.3952,0.4096,0.4151,0.426,0.4303,0.4456,0.4435,0.4626,0.4558,0.4623,0.4666,0.4671,0.4323,0.4205,0.3999,0.4113,0.3989,0.4647,0.4644,0.4642,0,0.3213,0.337,0.3472,0.3533,0.37,0.3755,0.383,0.3973,0.4056,0.4195,0.4251,0.4412,0.4474,0.4607,0.4685,0.4675,0.4861,0.4843,0.4664,0.4643,0.4331,0.4271,0.431,0.5022,0.5022,0.5022,0.5021,0,0.3276,0.3361,0.3467,0.3539,0.3655,0.3744,0.3861,0.3954,0.4071,0.4175,0.4278,0.4371,0.4528,0.4634,0.4721,0.4722,0.4891,0.4702,0.4666,0.4402,0.435,0.4179,0.4164,0.5026,0.5025,0.5024,0.5023,0,0.3308,0.3368,0.3507,0.364,0.3672,0.3758,0.388,0.396,0.4044,0.4175,0.4218,0.4369,0.4465,0.4578,0.4758,0.471,0.4603,0.4746,0.4385,0.43,0.3923,0.3931,0.3788,0.3705,0.4551,0.4545,0.454,0,0.3347,0.3422,0.357,0.3638,0.3704,0.3806,0.3875,0.3959,0.4035,0.4175,0.4237,0.4339,0.4405,0.4475,0.4403,0.4426,0.4417,0.4134,0.4053,0.3864,0.3854,0.3782,0.3724,0.3775,0.3764,0.3755,0.3748,0,0.3455,0.35,0.3613,0.3732,0.3807,0.3873,0.3954,0.3991,0.4082,0.4139,0.4194,0.4232,0.4215,0.4026,0.3964,0.3955,0.3841,0.3939,0.3881,0.3348,0.3142,0.3052,0.373,0.3667,0.3675,0.3681,0.3685,0.3688,0.3538,0.3631,0.3746,0.384,0.3909,0.3904,0.3872,0.3922,0.3947,0.3891,0.4049,0.392,0.3714,0.3531,0.3498,0.3104,0.3298,0.2959,0.3024,0.2999,0.2778,0.3222,0.3009,0.3013,0.3016,0.3019,0.3022,0,0.3647,0.3722,0.3836,0.3906,0.3904,0.3914,0.3896,0.3766,0.3679,0.3651,0.3594,0.3251,0.299,0.282,0.2412,0.2229,0.2211,0.2157,0.2061,0.2089,0.259,0.2406,0.188,0.188,0.188,0.188,0.1881,0.1881,0.3717,0.3825,0.3844,0.384,0.3841,0.3679,0.3584,0.3394,0.3286,0.2937,0.2663,0.2564,0.237,0.201,0.1693,0.1643,0.1612,0.1403,0.1606,0.2,0.2082,0.2161,0.1987,0.1381,0.1381,0.0942,0.0939,0.0936]},{"header":{"parameterUnit":"m.s-1","parameterCategory":2,"la1":30.2991,"la2":30.254,"lo1":-89.0895,"lo2":-89.0444,"dy":0.0017,"dx":0.0017,"nx":28,"ny":28,"refTime":"2024-08-14T09:00:00:Z","depth":"0","parameterNumber":3,"parameterNumberName":"V-component_of_CURRENTS"},"data":[0,0,0,0,0,0,0,0,0,0,0,0,0,0,0,0,0,0,0,0,0,0,0,0,0,0,0,0,0,0,0,0,0,0,0,0,0,0,0,0,0,0,0,0,0,0,0,0,0,0,0,0,0,0,0,0,0,0,0.0095,0.0095,0,0.0083,0.0083,0.0083,0.0081,0.0081,0.0082,0.0082,0.0089,0.0088,0.0088,0,0,0,0,0,0,0,0,0,0,0,0,0,0.0066,0.0066,0.0095,0.0095,0.0095,0.0084,0.0083,0.0083,0.0081,0.0081,0.0082,0.0082,0.0089,0.0088,0.0088,0,0,0,0,0,0,0,0,0,0,0,0,0,0.0066,0.0067,0.0095,0.0095,0.0095,0.0084,0.0083,0.0083,0.0081,0.0081,0.0082,0.0082,0.0089,0.0088,0.0088,0.0075,0,0,0.0087,0.0087,0,0,0,0,0,0,0,0,0.0066,0.0067,0.0095,0.0095,0.0095,0.0087,0.0075,0.0082,0.0081,0.0083,0.0082,0.0083,0.0091,0.0091,0.0083,0.0076,0.0076,0.0087,0.0087,0.0087,0.0087,0,0,0,0,0,0,0,0.0066,0.0067,0.0087,0.0095,0.0095,0.0079,0.008,0.0076,0.0082,0.0083,0.0083,0.0087,0.0091,0.0083,0.0083,0.0076,0.0087,0.0087,0.0087,0.0087,0.0056,0.0055,0,0,0,0,0,0,0.0076,0.0067,0.0088,0.0087,0.0085,0.0079,0.008,0.0086,0.0082,0.0082,0.0086,0.0087,0.0083,0.0083,0.0083,0.0069,0.0087,0.0087,0.0087,0.0056,0.0056,0.0055,0,0,0,0,0,0,0.0075,0.0078,0.0088,0.0079,0.008,0.008,0.0087,0.0086,0.0083,0.0085,0.0085,0.0085,0.0084,0.0084,0.0079,0.007,0.0087,0.0087,0.0057,0.0056,0.0055,0.004,0,0,0,0,0,0,0.0074,0.0077,0.0081,0.008,0.0081,0.0084,0.0086,0.0085,0.0085,0.0086,0.0084,0.0085,0.0084,0.0079,0.0078,0.007,0.0086,0.0058,0.0057,0.0055,0.0042,0.0039,0.0037,0,0,0,0,0,0.0073,0.0077,0.0081,0.0083,0.0087,0.0084,0.0083,0.0082,0.0085,0.0082,0.0078,0.0085,0.0071,0.0078,0.0078,0.0069,0.0059,0.0057,0.0056,0.0043,0.0039,0.0037,0,0,0,0,0,0,0.0063,0.0078,0.0082,0.0089,0.0089,0.0085,0.0084,0.0083,0.0076,0.0079,0.0078,0.0078,0.0066,0.007,0.0078,0.0055,0.0065,0.0063,0.0055,0.0052,0.005,0.0084,0.0086,0,0,0,0,0,0.0064,0.0072,0.0079,0.0084,0.0087,0.0085,0.0083,0.0084,0.0081,0.0079,0.0074,0.0069,0.0057,0.0058,0.0048,0.0041,0.01,0.0033,0.0031,0.0029,0.0055,0.0131,0.014,0.005,0.005,0.005,0,0,0.0061,0.007,0.0075,0.0082,0.0083,0.0083,0.0084,0.0086,0.0082,0.0081,0.007,0.0058,0.0051,0.0037,0.0033,0.0042,0.0084,0.0027,0.0025,0.0054,0.0131,0.014,0.0149,0.0049,0.0049,0.0049,0,0,0.0066,0.0069,0.0082,0.0081,0.0088,0.0083,0.0085,0.0082,0.0077,0.0068,0.0059,0.0052,0.0034,0.003,0.0025,0.0007,0.0063,-0.001,0.0013,0.0085,0.0095,0.0103,0.0195,0.0212,-0.0005,-0.0005,-0.0005,0,0.0062,0.0079,0.0081,0.0091,0.0091,0.0084,0.009,0.008,0.0072,0.0075,0.0067,0.0053,0.0037,0.0037,0.0019,0.0004,0.0065,0.0024,0.0086,0.0096,0.0106,0.0197,0.0216,-0.0006,-0.0006,-0.0006,-0.0006,0,0.008,0.0087,0.0091,0.0101,0.0097,0.0099,0.0091,0.0083,0.0076,0.0075,0.0074,0.0057,0.0064,0.0035,0.0019,0.0058,0.0087,0.0072,0.0102,0.0114,0.0209,0.023,-0.0007,-0.0007,-0.0007,-0.0006,0,0,0.0088,0.0103,0.0104,0.0111,0.0103,0.0105,0.0094,0.0093,0.0112,0.0091,0.0128,0.0077,0.009,0.0086,0.0066,0.0111,0.0208,0.0119,0.0123,0.0226,0.0399,0.0337,0.0354,0.0209,0.0213,0.0215,0.0442,0,0.0101,0.0122,0.0122,0.0127,0.0134,0.0121,0.012,0.0117,0.0119,0.0149,0.0142,0.0165,0.0103,0.0123,0.0151,0.0204,0.0261,0.0151,0.036,0.0367,0.0323,0.0374,0.0342,0.0534,0.0462,0.0466,0.0468,0,0.012,0.0131,0.0145,0.0154,0.0158,0.0157,0.0169,0.017,0.0199,0.0212,0.0235,0.0249,0.0299,0.0253,0.0374,0.0312,0.0359,0.0395,0.0404,0.0372,0.0342,0.0507,0.0574,0.0496,0.05,0.0498,0.0495,0,0.013,0.0144,0.0156,0.0156,0.0166,0.017,0.0174,0.0191,0.0226,0.0275,0.0343,0.0372,0.045,0.0493,0.0539,0.0485,0.0697,0.0637,0.0631,0.0629,0.0657,0.065,0.0688,0.0743,0.0742,0.0742,0.0741,0,0.0142,0.0151,0.0164,0.0171,0.0201,0.0194,0.024,0.0247,0.031,0.0403,0.0394,0.0509,0.0521,0.0625,0.0625,0.0707,0.0778,0.0669,0.0688,0.0646,0.0636,0.061,0.0563,0.075,0.0748,0.0747,0.0745,0,0.0154,0.0159,0.0179,0.0196,0.0207,0.0229,0.0292,0.0351,0.039,0.0528,0.0567,0.067,0.0809,0.0813,0.0927,0.0851,0.0876,0.0913,0.0862,0.0866,0.0716,0.0669,0.0786,0.0774,0.0951,0.0951,0.0951,0,0.0168,0.0179,0.0206,0.0249,0.0261,0.0302,0.036,0.0387,0.0477,0.065,0.0756,0.0904,0.1049,0.1159,0.1061,0.1066,0.097,0.0981,0.0833,0.073,0.0695,0.0663,0.0642,0.0891,0.0891,0.089,0.089,0,0.0208,0.0214,0.0241,0.0317,0.0376,0.0449,0.0537,0.0616,0.0707,0.0851,0.1085,0.1211,0.1278,0.1266,0.1176,0.1134,0.09,0.0966,0.0897,0.0683,0.0625,0.0614,0.0729,0.0885,0.0886,0.0886,0.0886,0.0886,0.0257,0.029,0.0341,0.0406,0.0489,0.0616,0.0704,0.0843,0.1015,0.1246,0.133,0.1541,0.1394,0.128,0.1182,0.0894,0.0927,0.0781,0.0756,0.0751,0.0656,0.0746,0.0868,0.0869,0.0869,0.0869,0.0869,0,0.0337,0.0376,0.0446,0.054,0.0651,0.0673,0.0851,0.0971,0.1215,0.1422,0.162,0.1647,0.1497,0.1263,0.0875,0.0702,0.0648,0.0614,0.0574,0.0578,0.0709,0.0613,0.0638,0.0638,0.0638,0.0638,0.0638,0.0638,0.0396,0.0471,0.0488,0.0665,0.075,0.0922,0.1034,0.1224,0.1396,0.1643,0.1747,0.1806,0.159,0.0978,0.0604,0.053,0.0444,0.0411,0.0405,0.0462,0.0475,0.0487,0.0384,0.0361,0.0361,0.0279,0.0278,0.0277]}],[{"header":{"parameterUnit":"m.s-1","parameterCategory":2,"la1":30.2991,"la2":30.254,"lo1":-89.0895,"lo2":-89.0444,"dy":0.0017,"dx":0.0017,"nx":28,"ny":28,"refTime":"2024-08-14T09:00:00:Z","depth":"2","parameterNumber":2,"parameterNumberName":"U-component_of_CURRENTS"},"data":[0,0,0,0,0,0,0,0,0,0,0,0,0,0,0,0,0,0,0,0,0,0,0,0,0,0,0,0,0,0,0,0,0,0,0,0,0,0,0,0,0,0,0,0,0,0,0,0,0,0,0,0,0,0,0,0,0,0,0.1894,0.1894,0,0.1958,0.196,0.1961,0.202,0.202,0.202,0.202,0.1964,0.1962,0.1961,0,0,0,0,0,0,0,0,0,0,0,0,0,0.1932,0.1931,0.1894,0.1894,0.1894,0.1958,0.196,0.1962,0.202,0.202,0.202,0.202,0.1964,0.1963,0.1961,0,0,0,0,0,0,0,0,0,0,0,0,0,0.1955,0.1931,0.1894,0.1925,0.1928,0.1958,0.196,0.1962,0.202,0.202,0.202,0.202,0.1965,0.1963,0.1961,0.1949,0,0,0.1954,0.1953,0,0,0,0,0,0,0,0,0.1954,0.1955,0.192,0.1923,0.1926,0.1974,0.1953,0.1949,0.202,0.1993,0.202,0.202,0.195,0.195,0.1975,0.1946,0.1944,0.1954,0.1952,0.1952,0.1951,0,0,0,0,0,0,0,0.1952,0.1953,0.1928,0.192,0.1923,0.1973,0.1976,0.1954,0.1976,0.1996,0.1998,0.1992,0.1952,0.1978,0.1974,0.1943,0.1954,0.1952,0.1951,0.195,0.1997,0.1999,0,0,0,0,0,0,0.1922,0.1951,0.1926,0.1929,0.1931,0.1971,0.1975,0.1965,0.1979,0.1979,0.1992,0.1995,0.1981,0.1976,0.1972,0.2007,0.1952,0.195,0.1948,0.1994,0.1997,0.2,0,0,0,0,0,0,0.1922,0.1919,0.1923,0.1935,0.1938,0.1969,0.1958,0.1966,0.1978,0.1976,0.1976,0.1993,0.1981,0.1975,0.1967,0.2002,0.1949,0.1947,0.1991,0.1995,0.1998,0.2044,0,0,0,0,0,0,0.1923,0.1918,0.1918,0.1933,0.1936,0.1924,0.1958,0.1967,0.1971,0.1975,0.1976,0.1972,0.1981,0.1971,0.1965,0.1999,0.1945,0.1988,0.1993,0.1997,0.2039,0.2049,0.2057,0,0,0,0,0,0.1924,0.1917,0.1917,0.1915,0.1928,0.1922,0.1929,0.1958,0.1971,0.1971,0.1992,0.1972,0.1999,0.197,0.1963,0.1997,0.1985,0.1991,0.1997,0.2035,0.2047,0.2057,0,0,0,0,0,0,0.193,0.1922,0.1923,0.1913,0.1907,0.1928,0.1948,0.1945,0.1967,0.1988,0.1977,0.1975,0.1998,0.1986,0.1954,0.2032,0.1998,0.2003,0.203,0.2041,0.205,0.2091,0.1943,0,0,0,0,0,0.1927,0.1932,0.1912,0.1911,0.1909,0.1924,0.1931,0.1944,0.1956,0.1968,0.1972,0.1996,0.202,0.2016,0.2038,0.2044,0.2074,0.2074,0.2083,0.209,0.2125,0.2239,0.2262,0.2019,0.2019,0.2018,0,0,0.1934,0.1929,0.1934,0.1915,0.1932,0.1937,0.1931,0.1946,0.1963,0.1953,0.1996,0.2017,0.2031,0.2075,0.2083,0.206,0.2162,0.2097,0.2103,0.2135,0.2248,0.2272,0.2293,0.2022,0.2022,0.2021,0,0,0.1952,0.1942,0.1953,0.1944,0.1948,0.1958,0.1947,0.1964,0.1985,0.2008,0.2037,0.2077,0.2086,0.213,0.2145,0.2206,0.2211,0.2213,0.2278,0.2387,0.2409,0.2428,0.2435,0.2454,0.221,0.221,0.221,0,0.1968,0.1954,0.1954,0.1955,0.1957,0.1957,0.1963,0.1985,0.2003,0.204,0.2029,0.2147,0.2128,0.2215,0.2248,0.2225,0.2267,0.2225,0.24,0.242,0.2439,0.2442,0.2463,0.2213,0.2213,0.2213,0.2212,0,0.1973,0.1971,0.1977,0.1985,0.1994,0.1994,0.2008,0.2038,0.2065,0.2103,0.2198,0.2224,0.2305,0.2301,0.2284,0.2418,0.2392,0.24,0.2369,0.2466,0.2462,0.2483,0.2217,0.2216,0.2215,0.2215,0,0,0.2003,0.1982,0.1992,0.1985,0.2002,0.2004,0.2059,0.2101,0.2159,0.2218,0.2311,0.2373,0.2431,0.2455,0.2463,0.2538,0.2655,0.253,0.2535,0.2529,0.2851,0.2677,0.2682,0.2715,0.272,0.2725,0.277,0,0.2009,0.1991,0.2002,0.2015,0.2002,0.2037,0.2079,0.214,0.2211,0.2304,0.2388,0.2477,0.2475,0.2525,0.2619,0.2647,0.2727,0.2639,0.2767,0.2769,0.2599,0.2708,0.2446,0.2456,0.2791,0.2795,0.2797,0,0.2014,0.1996,0.1995,0.2003,0.2009,0.2037,0.2131,0.2169,0.2312,0.2383,0.2538,0.2605,0.2728,0.2716,0.2878,0.2832,0.2871,0.2887,0.2889,0.274,0.2638,0.2428,0.2482,0.2833,0.283,0.2827,0.2825,0,0.1999,0.1998,0.1992,0.1989,0.201,0.2052,0.2082,0.221,0.228,0.2457,0.2551,0.2724,0.2814,0.2929,0.2974,0.2952,0.3133,0.3094,0.2977,0.296,0.2769,0.2726,0.3262,0.3262,0.3262,0.3262,0.3261,0,0.1966,0.1964,0.1983,0.1968,0.2014,0.2038,0.2129,0.2207,0.2348,0.2472,0.2602,0.2736,0.2893,0.3005,0.3035,0.306,0.3197,0.3018,0.2996,0.2765,0.2724,0.3088,0.3067,0.3263,0.3263,0.3262,0.3262,0,0.1947,0.1933,0.1954,0.1986,0.2003,0.2052,0.2142,0.2223,0.2338,0.2513,0.2578,0.2781,0.2891,0.2987,0.3136,0.3108,0.3146,0.3133,0.2793,0.2729,0.287,0.2852,0.2986,0.2981,0.2976,0.2973,0.297,0,0.1903,0.1922,0.1995,0.2027,0.2047,0.2102,0.2158,0.2243,0.2334,0.2538,0.2627,0.278,0.2866,0.2953,0.2933,0.2923,0.3066,0.2692,0.2605,0.2895,0.286,0.2848,0.2835,0.2342,0.2334,0.2327,0.2322,0,0.1866,0.1943,0.195,0.2054,0.2113,0.2168,0.2231,0.2271,0.2397,0.2509,0.2629,0.2685,0.2742,0.261,0.2595,0.2565,0.2654,0.2554,0.3032,0.2435,0.2289,0.2253,0.2262,0.2265,0.227,0.2275,0.2278,0.228,0.1868,0.1911,0.1973,0.2037,0.2139,0.2188,0.2173,0.2229,0.2292,0.2343,0.249,0.2446,0.2446,0.2231,0.2163,0.2095,0.2283,0.2186,0.2207,0.2235,0.2136,0.199,0.1885,0.1889,0.1892,0.1894,0.1896,0,0.1841,0.1868,0.1943,0.202,0.2117,0.2184,0.2197,0.2122,0.2105,0.215,0.216,0.1921,0.1796,0.1799,0.1592,0.1564,0.1568,0.1502,0.1507,0.1563,0.1613,0.1485,0.1061,0.1058,0.1056,0.1054,0,0,0.1842,0.1841,0.1848,0.1914,0.2025,0.2014,0.1982,0.1895,0.1827,0.1694,0.162,0.1678,0.1722,0.1378,0.1314,0.1162,0.1357,0.1095,0.1761,0.1822,0.187,0.1995,0.1857,0,0,0,0,0]},{"header":{"parameterUnit":"m.s-1","parameterCategory":2,"la1":30.2991,"la2":30.254,"lo1":-89.0895,"lo2":-89.0444,"dy":0.0017,"dx":0.0017,"nx":28,"ny":28,"refTime":"2024-08-14T09:00:00:Z","depth":"2","parameterNumber":3,"parameterNumberName":"V-component_of_CURRENTS"},"data":[0,0,0,0,0,0,0,0,0,0,0,0,0,0,0,0,0,0,0,0,0,0,0,0,0,0,0,0,0,0,0,0,0,0,0,0,0,0,0,0,0,0,0,0,0,0,0,0,0,0,0,0,0,0,0,0,0,0,0.0051,0.0051,0,0.0045,0.0045,0.0044,0.0026,0.0026,0.0026,0.0026,0.0027,0.0027,0.0027,0,0,0,0,0,0,0,0,0,0,0,0,0,0.0016,0.0017,0.0051,0.0051,0.0051,0.0045,0.0045,0.0044,0.0026,0.0026,0.0026,0.0026,0.0026,0.0027,0.0027,0,0,0,0,0,0,0,0,0,0,0,0,0,0.002,0.0017,0.0051,0.0044,0.0043,0.0045,0.0045,0.0044,0.0026,0.0026,0.0026,0.0026,0.0026,0.0027,0.0027,0.0031,0,0,0.0027,0.0027,0,0,0,0,0,0,0,0,0.002,0.0021,0.0044,0.0044,0.0044,0.0039,0.0033,0.0041,0.0026,0.0029,0.0026,0.0026,0.0033,0.0033,0.0028,0.0031,0.0031,0.0027,0.0027,0.0028,0.0028,0,0,0,0,0,0,0,0.0019,0.0021,0.0045,0.0045,0.0044,0.0031,0.0031,0.0034,0.003,0.0029,0.0028,0.0033,0.0033,0.0028,0.0028,0.0031,0.0027,0.0028,0.0028,0.0028,0.0023,0.0022,0,0,0,0,0,0,0.0028,0.0021,0.0045,0.0045,0.0035,0.0032,0.0032,0.0038,0.003,0.0029,0.0033,0.0032,0.0027,0.0027,0.0028,0.0054,0.0028,0.0028,0.0028,0.0023,0.0023,0.0022,0,0,0,0,0,0,0.0028,0.0031,0.0046,0.0035,0.0036,0.0033,0.004,0.0038,0.004,0.0034,0.0032,0.0038,0.0027,0.0027,0.0032,0.0053,0.0028,0.0028,0.0023,0.0023,0.0022,0.0092,0,0,0,0,0,0,0.0027,0.003,0.0035,0.0036,0.0038,0.0058,0.004,0.0038,0.0044,0.0043,0.0037,0.0037,0.0027,0.0032,0.0033,0.0053,0.0028,0.0023,0.0023,0.0023,0.009,0.0094,0.0098,0,0,0,0,0,0.0025,0.0037,0.0035,0.0038,0.0045,0.0059,0.0059,0.0053,0.0045,0.0052,0.0041,0.0037,0.0029,0.0033,0.0033,0.0054,0.0024,0.0023,0.0023,0.0089,0.0094,0.0098,0,0,0,0,0,0,0.0025,0.0037,0.0035,0.0049,0.0058,0.0057,0.0063,0.006,0.0056,0.0052,0.0042,0.0041,0.0049,0.0036,0.004,0.0045,0.0023,0.0022,0.0073,0.0077,0.0081,0.0144,0.0028,0,0,0,0,0,0.0028,0.0038,0.0049,0.006,0.0067,0.0066,0.0069,0.0067,0.0066,0.0064,0.006,0.0049,0.0045,0.005,0.0039,0.0053,0.0061,0.006,0.0064,0.0068,0.0116,0.0152,0.0166,0.002,0.002,0.002,0,0,0.003,0.0038,0.0043,0.006,0.0064,0.0088,0.0067,0.0078,0.01,0.0065,0.0086,0.0063,0.0048,0.0057,0.006,0.0054,0.0098,0.0067,0.0071,0.0119,0.0154,0.0169,0.0182,0.002,0.002,0.002,0,0,0.0048,0.0049,0.0068,0.0081,0.0096,0.01,0.0109,0.0113,0.0118,0.0132,0.0107,0.0113,0.0098,0.0106,0.0104,0.0126,0.0113,0.0096,0.0181,0.0214,0.0228,0.0241,0.0217,0.0227,0.0105,0.0105,0.0105,0,0.0049,0.008,0.0075,0.0103,0.0125,0.0113,0.0149,0.0153,0.0157,0.0183,0.0147,0.0165,0.0136,0.0187,0.0177,0.0144,0.0136,0.0169,0.0225,0.0238,0.025,0.0223,0.0233,0.0108,0.0108,0.0108,0.0107,0,0.0089,0.0114,0.0129,0.0163,0.0183,0.0209,0.0224,0.0243,0.0242,0.0256,0.0298,0.0267,0.0293,0.026,0.0224,0.0288,0.0242,0.0223,0.0227,0.027,0.0236,0.0246,0.0113,0.0112,0.0111,0.011,0,0,0.0096,0.0148,0.0154,0.0193,0.0221,0.025,0.0291,0.0347,0.0411,0.0396,0.0485,0.0451,0.0447,0.0446,0.0404,0.0424,0.0453,0.0359,0.0359,0.0358,0.0488,0.0414,0.0416,0.0444,0.0447,0.045,0.0412,0,0.0133,0.0202,0.0217,0.0293,0.0336,0.0354,0.0411,0.0455,0.0487,0.0563,0.0558,0.0605,0.0514,0.0529,0.0539,0.0485,0.049,0.0463,0.0428,0.0427,0.0378,0.0431,0.0426,0.0392,0.0422,0.0423,0.0424,0,0.0172,0.0219,0.0293,0.0391,0.0415,0.0457,0.0571,0.062,0.0711,0.0739,0.0794,0.0788,0.0817,0.0732,0.0704,0.0686,0.0603,0.0551,0.0548,0.0482,0.0376,0.0361,0.0408,0.044,0.0439,0.0438,0.0437,0,0.0194,0.0279,0.0346,0.0372,0.0469,0.0521,0.0581,0.0676,0.0756,0.086,0.0929,0.0961,0.0979,0.0923,0.0781,0.0754,0.0739,0.0686,0.0545,0.0535,0.0532,0.0517,0.0691,0.0691,0.0691,0.0691,0.0691,0,0.0234,0.0292,0.0364,0.0403,0.0524,0.0568,0.0707,0.0774,0.0895,0.1015,0.1023,0.1104,0.1031,0.0997,0.0862,0.073,0.0797,0.0593,0.0549,0.0543,0.0531,0.0584,0.0572,0.069,0.069,0.069,0.0691,0,0.025,0.0289,0.0377,0.0484,0.0534,0.0616,0.0779,0.0897,0.0977,0.1136,0.1174,0.1223,0.1165,0.1055,0.095,0.0825,0.0709,0.0634,0.0599,0.0554,0.0456,0.0448,0.0508,0.0506,0.0504,0.0502,0.0501,0,0.0267,0.0305,0.043,0.051,0.0562,0.0694,0.0817,0.0932,0.106,0.1197,0.1291,0.1279,0.1272,0.1083,0.088,0.0668,0.065,0.0526,0.0491,0.0501,0.0452,0.0446,0.044,0.0482,0.048,0.0479,0.0478,0,0.0313,0.034,0.0427,0.058,0.0706,0.0855,0.1022,0.1123,0.1265,0.1361,0.1452,0.1439,0.1257,0.1052,0.0772,0.0627,0.0567,0.0494,0.0569,0.052,0.0472,0.0424,0.0421,0.0468,0.0469,0.047,0.047,0.0471,0.0362,0.042,0.0537,0.0688,0.0826,0.1,0.1119,0.1273,0.1428,0.1533,0.1518,0.1449,0.126,0.0859,0.0653,0.0441,0.0458,0.038,0.0387,0.0394,0.039,0.034,0.0307,0.0307,0.0307,0.0307,0.0307,0,0.0443,0.0522,0.0658,0.0831,0.0967,0.104,0.1261,0.1346,0.1484,0.1521,0.1523,0.1265,0.1053,0.0822,0.0495,0.0316,0.0322,0.0256,0.0314,0.0325,0.0334,0.0329,0.023,0.0229,0.0228,0.0228,0,0,0.0495,0.0636,0.0701,0.0933,0.1039,0.1221,0.1326,0.1419,0.1467,0.1442,0.1367,0.1289,0.1053,0.0799,0.0575,0.0398,0.0397,0.0356,0.0436,0.0541,0.0552,0.042,0.0426,0,0,0,0,0]}],[{"header":{"parameterUnit":"m.s-1","parameterCategory":2,"la1":30.2991,"la2":30.254,"lo1":-89.0895,"lo2":-89.0444,"dy":0.0017,"dx":0.0017,"nx":28,"ny":28,"refTime":"2024-08-14T09:00:00:Z","depth":"4","parameterNumber":2,"parameterNumberName":"U-component_of_CURRENTS"},"data":[0,0,0,0,0,0,0,0,0,0,0,0,0,0,0,0,0,0,0,0,0,0,0,0,0,0,0,0,0,0,0,0,0,0,0,0,0,0,0,0,0,0,0,0,0,0,0,0,0,0,0,0,0,0,0,0,0,0,0.0952,0.0952,0,0.0923,0.0922,0.0922,0.0964,0.0966,0.0968,0.0969,0.1007,0.1007,0.1006,0,0,0,0,0,0,0,0,0,0,0,0,0,0.0975,0.0974,0.0952,0.0952,0.0952,0.0923,0.0922,0.0922,0.0964,0.0966,0.0968,0.097,0.1007,0.1007,0.1006,0,0,0,0,0,0,0,0,0,0,0,0,0,0.0954,0.0974,0.0952,0.0971,0.0973,0.0923,0.0922,0.0922,0.0963,0.0966,0.0969,0.0971,0.1008,0.1007,0.1006,0.0946,0,0,0.1003,0.1002,0,0,0,0,0,0,0,0,0.0956,0.0953,0.0969,0.097,0.0972,0.0953,0.0945,0.0934,0.0963,0.0964,0.0969,0.0972,0.0995,0.0995,0.0979,0.0948,0.095,0.1003,0.1002,0.1002,0.1001,0,0,0,0,0,0,0,0.0957,0.0954,0.0937,0.0968,0.097,0.0959,0.0959,0.0942,0.0964,0.0964,0.0968,0.0969,0.0997,0.0979,0.098,0.095,0.1003,0.1002,0.1001,0.1001,0.1,0.1,0,0,0,0,0,0,0.0967,0.0956,0.0938,0.0937,0.0974,0.0957,0.0957,0.0954,0.0962,0.0967,0.0966,0.0971,0.098,0.0981,0.0982,0.1016,0.1002,0.1001,0.1,0.0999,0.1,0.1,0,0,0,0,0,0,0.0968,0.0966,0.0939,0.0949,0.0945,0.0954,0.095,0.0952,0.0968,0.0964,0.097,0.0985,0.0982,0.0983,0.1012,0.1014,0.1,0.1,0.0998,0.0999,0.1,0.1018,0,0,0,0,0,0,0.0968,0.0966,0.0978,0.0949,0.0945,0.0925,0.0947,0.0949,0.0964,0.097,0.0981,0.0986,0.0984,0.1014,0.1012,0.1013,0.0999,0.0998,0.0999,0.1,0.1016,0.1019,0.1021,0,0,0,0,0,0.0969,0.0973,0.0979,0.0978,0.0958,0.0924,0.0921,0.0934,0.0963,0.096,0.0993,0.0987,0.1019,0.1014,0.1011,0.1011,0.0997,0.0998,0.1,0.1015,0.1018,0.1021,0,0,0,0,0,0,0.0987,0.0976,0.0983,0.0984,0.0964,0.0934,0.0939,0.0944,0.0961,0.0983,0.0993,0.0998,0.1033,0.1015,0.101,0.1016,0.1006,0.1007,0.1019,0.1022,0.1024,0.1025,0.0998,0,0,0,0,0,0.0995,0.0998,0.0977,0.0976,0.0972,0.0959,0.0955,0.0955,0.096,0.0971,0.098,0.0998,0.1023,0.1022,0.1036,0.1021,0.1039,0.1021,0.1023,0.1025,0.1025,0.1073,0.1081,0.1004,0.1004,0.1004,0,0,0.1,0.0996,0.0998,0.0981,0.0971,0.0949,0.0963,0.0954,0.0948,0.097,0.0983,0.1016,0.103,0.104,0.1049,0.1027,0.1056,0.1027,0.1029,0.1027,0.1076,0.1083,0.109,0.1005,0.1005,0.1005,0,0,0.0995,0.1009,0.1004,0.0988,0.0976,0.0958,0.0963,0.0942,0.0955,0.096,0.0998,0.1029,0.1037,0.1045,0.1054,0.1068,0.1087,0.1079,0.1066,0.1113,0.112,0.1126,0.1157,0.1166,0.1056,0.1056,0.1056,0,0.1011,0.0991,0.0995,0.098,0.0969,0.0967,0.0946,0.0943,0.0937,0.0961,0.0974,0.1037,0.1035,0.1069,0.1074,0.1071,0.1111,0.1054,0.1117,0.1124,0.113,0.116,0.1169,0.1057,0.1057,0.1057,0.1057,0,0.0977,0.0977,0.0971,0.0953,0.0942,0.092,0.0913,0.092,0.0943,0.0955,0.1016,0.1028,0.1072,0.1066,0.1071,0.1112,0.1132,0.1136,0.1111,0.1139,0.1168,0.1178,0.1059,0.1058,0.1058,0.1058,0,0,0.0983,0.0954,0.0961,0.095,0.0925,0.0911,0.0912,0.0917,0.0955,0.0967,0.1016,0.1043,0.1086,0.1099,0.1113,0.1123,0.1181,0.1144,0.1146,0.1175,0.13,0.1211,0.1213,0.1219,0.1221,0.1223,0.1303,0,0.0958,0.0919,0.092,0.0896,0.0867,0.0881,0.0886,0.0905,0.0944,0.099,0.1029,0.1092,0.109,0.1131,0.1146,0.1201,0.121,0.1159,0.1267,0.1269,0.1189,0.1222,0.1228,0.131,0.1312,0.1314,0.1315,0,0.0927,0.0901,0.0862,0.0865,0.0864,0.0868,0.0905,0.0915,0.0986,0.103,0.1102,0.1152,0.1201,0.1183,0.1278,0.1265,0.1279,0.1292,0.1296,0.1212,0.1198,0.1277,0.1332,0.1331,0.133,0.1329,0.1328,0,0.0891,0.0879,0.0848,0.0837,0.0828,0.0857,0.0884,0.0944,0.0991,0.1081,0.1148,0.1217,0.1288,0.1323,0.1368,0.1345,0.146,0.1429,0.1353,0.1348,0.1396,0.1388,0.1467,0.1467,0.1467,0.1467,0.1467,0,0.0836,0.0825,0.0845,0.0817,0.0832,0.0857,0.0919,0.0957,0.1053,0.1125,0.1195,0.1261,0.1336,0.1409,0.1408,0.1431,0.1508,0.1358,0.1365,0.14,0.1392,0.1403,0.1394,0.147,0.1469,0.1469,0.1468,0,0.0763,0.0776,0.0746,0.0769,0.0802,0.0817,0.0939,0.0986,0.11,0.1196,0.1237,0.1345,0.144,0.1494,0.1556,0.1496,0.1504,0.1481,0.1528,0.1536,0.1342,0.1334,0.1393,0.1391,0.1389,0.1387,0.1385,0,0.0701,0.0674,0.0705,0.0722,0.074,0.0806,0.0854,0.098,0.104,0.1232,0.1258,0.1404,0.146,0.1504,0.1535,0.1543,0.1505,0.1489,0.1379,0.1335,0.1337,0.1331,0.1326,0.1382,0.1382,0.1381,0.1381,0,0.0574,0.0606,0.0583,0.0625,0.0683,0.0732,0.0827,0.088,0.1033,0.1164,0.1274,0.1326,0.1424,0.1452,0.1489,0.1472,0.1488,0.1466,0.1469,0.1365,0.1323,0.1325,0.1322,0.1374,0.1375,0.1375,0.1376,0,0.05,0.0473,0.0492,0.0531,0.0586,0.0636,0.0704,0.0808,0.0903,0.1129,0.1158,0.1308,0.1427,0.1416,0.1439,0.1439,0.1381,0.1291,0.1301,0.1309,0.1237,0.1169,0.1184,0,0,0,0,0,0.0418,0.0411,0.0417,0.0456,0.0501,0.0555,0.0667,0.0747,0.0924,0.0976,0.108,0.1165,0.1235,0.1285,0.1262,0.1341,0.1351,0.1299,0.1244,0.1335,0.1343,0.1261,0,0,0,0,0,0,0.038,0.037,0.0383,0.0391,0.0413,0.0472,0.0538,0.0654,0.0698,0.0884,0.0933,0.1068,0.1147,0.1254,0.1238,0.125,0.118,0.1387,0.1383,0.133,0.1337,0.1344,0.1263,0,0,0,0,0]},{"header":{"parameterUnit":"m.s-1","parameterCategory":2,"la1":30.2991,"la2":30.254,"lo1":-89.0895,"lo2":-89.0444,"dy":0.0017,"dx":0.0017,"nx":28,"ny":28,"refTime":"2024-08-14T09:00:00:Z","depth":"4","parameterNumber":3,"parameterNumberName":"V-component_of_CURRENTS"},"data":[0,0,0,0,0,0,0,0,0,0,0,0,0,0,0,0,0,0,0,0,0,0,0,0,0,0,0,0,0,0,0,0,0,0,0,0,0,0,0,0,0,0,0,0,0,0,0,0,0,0,0,0,0,0,0,0,0,0,0.009,0.009,0,0.0106,0.0107,0.0107,0.0092,0.0092,0.0091,0.0091,0.0092,0.0092,0.0093,0,0,0,0,0,0,0,0,0,0,0,0,0,0.0053,0.0054,0.009,0.009,0.0091,0.0106,0.0107,0.0107,0.0092,0.0092,0.0091,0.009,0.0092,0.0092,0.0093,0,0,0,0,0,0,0,0,0,0,0,0,0,0.0068,0.0054,0.009,0.0086,0.0086,0.0106,0.0107,0.0107,0.0092,0.0092,0.0091,0.009,0.0092,0.0092,0.0093,0.0112,0,0,0.0095,0.0095,0,0,0,0,0,0,0,0,0.0067,0.0069,0.0087,0.0087,0.0087,0.0098,0.0094,0.0108,0.0092,0.0089,0.0091,0.009,0.0094,0.0094,0.0097,0.0112,0.0112,0.0095,0.0096,0.0096,0.0096,0,0,0,0,0,0,0,0.0066,0.0069,0.0095,0.0087,0.0087,0.0086,0.0087,0.0097,0.0094,0.0089,0.0088,0.0092,0.0093,0.0097,0.0097,0.0112,0.0095,0.0096,0.0096,0.0096,0.0133,0.0134,0,0,0,0,0,0,0.0067,0.0068,0.0095,0.0096,0.0076,0.0088,0.0089,0.0094,0.0094,0.0094,0.0093,0.0092,0.0096,0.0096,0.0097,0.0135,0.0096,0.0097,0.0097,0.0133,0.0133,0.0134,0,0,0,0,0,0,0.0067,0.007,0.0094,0.0083,0.0086,0.0089,0.0095,0.0094,0.0101,0.0097,0.0096,0.01,0.0095,0.0096,0.0108,0.0134,0.0097,0.0098,0.0132,0.0133,0.0134,0.0201,0,0,0,0,0,0,0.0065,0.0069,0.0075,0.0083,0.0087,0.0114,0.0096,0.0095,0.0105,0.0103,0.0103,0.0102,0.0095,0.0107,0.0109,0.0135,0.0098,0.0131,0.0133,0.0133,0.0198,0.0204,0.0209,0,0,0,0,0,0.0064,0.0077,0.0075,0.0078,0.0094,0.0115,0.0118,0.0116,0.0106,0.0117,0.0112,0.0102,0.0115,0.0109,0.011,0.0137,0.0131,0.0132,0.0133,0.0196,0.0203,0.0209,0,0,0,0,0,0,0.0065,0.0077,0.0075,0.0091,0.0105,0.0113,0.0125,0.0122,0.0127,0.0124,0.0114,0.0114,0.0132,0.0123,0.0116,0.0148,0.012,0.0122,0.0167,0.0174,0.0179,0.0172,0.0099,0,0,0,0,0,0.0068,0.0079,0.0092,0.0106,0.0115,0.012,0.0129,0.0129,0.0135,0.0136,0.0141,0.0138,0.0139,0.0146,0.0146,0.017,0.0129,0.0185,0.0191,0.0196,0.0189,0.0135,0.0134,0.0138,0.0138,0.0138,0,0,0.0072,0.008,0.0087,0.0107,0.0116,0.0144,0.0124,0.0142,0.0166,0.0136,0.0171,0.0159,0.0147,0.017,0.0178,0.0168,0.0177,0.0197,0.0202,0.0192,0.0136,0.0135,0.0135,0.0139,0.0139,0.0139,0,0,0.0093,0.0095,0.0115,0.0134,0.0154,0.0161,0.0169,0.0188,0.0196,0.0225,0.0204,0.02,0.0223,0.0212,0.0209,0.0243,0.0204,0.0252,0.0283,0.0231,0.023,0.0228,0.0192,0.0186,0.026,0.026,0.026,0,0.0097,0.0126,0.0126,0.0156,0.0177,0.0173,0.0208,0.0221,0.0242,0.0248,0.0245,0.0244,0.024,0.0242,0.0258,0.0257,0.0223,0.0263,0.0237,0.0235,0.0232,0.0195,0.0188,0.0263,0.0263,0.0263,0.0262,0,0.0139,0.0165,0.0182,0.0218,0.0239,0.0269,0.0288,0.0309,0.0317,0.0321,0.0328,0.0312,0.0305,0.031,0.0302,0.0288,0.027,0.0247,0.0221,0.0236,0.0196,0.0188,0.0268,0.0267,0.0266,0.0265,0,0,0.0143,0.02,0.0207,0.0238,0.0276,0.0299,0.0339,0.0367,0.038,0.0392,0.0393,0.0402,0.0374,0.0366,0.0345,0.0309,0.0275,0.0281,0.0276,0.0246,0.0168,0.019,0.0183,0.0246,0.0245,0.0244,0.0154,0,0.0179,0.0244,0.0263,0.033,0.0369,0.0381,0.0416,0.0436,0.0442,0.0442,0.041,0.0407,0.0402,0.0392,0.0357,0.0288,0.0253,0.0302,0.0156,0.0152,0.017,0.0174,0.0239,0.0148,0.0146,0.0144,0.0143,0,0.0216,0.0258,0.033,0.0388,0.0405,0.0444,0.0483,0.0514,0.0505,0.0504,0.0482,0.0444,0.0407,0.0384,0.0284,0.0315,0.0251,0.0195,0.0189,0.0176,0.0158,0.0124,0.0127,0.0128,0.013,0.0131,0.0132,0,0.0227,0.0303,0.0362,0.0388,0.0453,0.0486,0.0517,0.0533,0.0562,0.0535,0.0535,0.0467,0.0442,0.0344,0.0262,0.0262,0.0131,0.011,0.0067,0.0068,0.0043,0.0046,0.002,0.002,0.002,0.0021,0.0021,0,0.0261,0.0308,0.0376,0.0415,0.0482,0.0514,0.0573,0.0586,0.0598,0.0622,0.057,0.0553,0.0429,0.0348,0.0253,0.015,0.0127,0.0068,0.0042,0.0078,0.0085,0.0038,0.0042,0.0017,0.0018,0.0019,0.0019,0,0.0272,0.0314,0.0388,0.0465,0.0495,0.0545,0.063,0.0663,0.0676,0.0695,0.0689,0.0616,0.0515,0.0396,0.0228,0.0161,0.0038,0.0004,0.0067,0.0047,0.0007,0.0014,-0.007,-0.007,-0.007,-0.007,-0.007,0,0.0284,0.0326,0.0423,0.0471,0.0516,0.0598,0.0652,0.0699,0.0735,0.0736,0.0735,0.065,0.0588,0.038,0.0243,0.0058,0.0037,-0.0027,-0.0025,0.0012,-0.0005,0.0003,0.0011,-0.007,-0.007,-0.007,-0.007,0,0.0306,0.034,0.0397,0.0498,0.0572,0.0655,0.0734,0.0768,0.0812,0.082,0.0775,0.0667,0.0553,0.0381,0.0255,0.0117,0.0009,-0.0028,-0.0029,-0.0028,0.001,-0.0004,0.0003,-0.007,-0.007,-0.007,-0.007,0,0.0314,0.0353,0.0427,0.0519,0.0606,0.0686,0.0735,0.0783,0.0822,0.0828,0.0801,0.0679,0.0602,0.0411,0.0283,0.0165,0.0123,0.0073,0.0066,0.0064,0.0136,0.0206,0.0161,0,0,0,0,0,0.0317,0.0363,0.0445,0.0547,0.0633,0.0691,0.0774,0.0815,0.0857,0.0836,0.0828,0.072,0.0531,0.0435,0.0321,0.0269,0.0097,0.0128,0.0035,-0.0071,-0.0071,-0.0008,0,0,0,0,0,0,0.0318,0.0384,0.0437,0.0549,0.0627,0.0727,0.0784,0.0816,0.0808,0.0821,0.0721,0.0685,0.0498,0.06,0.0315,0.0278,0.0201,0.0044,0.0042,-0.0071,-0.0071,-0.0071,-0.0006,0,0,0,0,0]}]]